| time (UTC) | temp C | wind direction | speed KPH | gust KPH | rain 1hr cm | rain 24hr cm | rain mn cm | humidity % | barometer mb |
| 20260505035524 | 15 | 0 | 0.0 | 0.0 | 0.00 | 0.00 | 0.00 | 67 | 1013.0 |
| 20260505035409 | 15 | 248 | 0.0 | 0.0 | 0.00 | 0.00 | 0.00 | 67 | 1012.0 |
| 20260505035003 | 15 | 0 | 0.0 | 0.0 | 0.00 | 0.00 | 0.00 | 66 | 1012.9 |
| 20260505034906 | 15 | 251 | 0.0 | 0.0 | 0.00 | 0.00 | 0.00 | 66 | 1011.8 |
| 20260505034503 | 15 | 0 | 0.0 | 0.0 | 0.00 | 0.00 | 0.00 | 66 | 1012.8 |
| 20260505034402 | 15 | 248 | 0.0 | 0.0 | 0.00 | 0.00 | 0.00 | 65 | 1012.0 |
| 20260505034003 | 15 | 0 | 0.0 | 0.0 | 0.00 | 0.00 | 0.00 | 65 | 1012.9 |
| 20260505033900 | 15 | 251 | 0.0 | 0.0 | 0.00 | 0.00 | 0.00 | 65 | 1012.0 |
| 20260505033503 | 16 | 0 | 0.0 | 0.0 | 0.00 | 0.00 | 0.00 | 64 | 1013.0 |
| 20260505033356 | 16 | 246 | 0.0 | 0.0 | 0.00 | 0.00 | 0.00 | 64 | 1011.8 |
| 20260505033003 | 16 | 0 | 0.0 | 0.0 | 0.00 | 0.00 | 0.00 | 63 | 1012.9 |
| 20260505032855 | 16 | 251 | 0.0 | 0.0 | 0.00 | 0.00 | 0.00 | 63 | 1012.2 |
| 20260505032503 | 16 | 0 | 0.0 | 0.0 | 0.00 | 0.00 | 0.00 | 63 | 1013.0 |
| 20260505032351 | 16 | 248 | 0.0 | 0.0 | 0.00 | 0.00 | 0.00 | 63 | 1012.0 |
| 20260505032003 | 16 | 244 | 0.0 | 3.2 | 0.00 | 0.00 | 0.00 | 63 | 1013.2 |
| 20260505031848 | 16 | 248 | 0.0 | 0.0 | 0.00 | 0.00 | 0.00 | 63 | 1012.2 |
| 20260505031503 | 16 | 248 | 0.0 | 3.2 | 0.00 | 0.00 | 0.00 | 62 | 1012.8 |
| 20260505031344 | 16 | 226 | 1.6 | 1.6 | 0.00 | 0.00 | 0.00 | 63 | 1012.0 |
| 20260505031003 | 16 | 248 | 0.0 | 3.2 | 0.00 | 0.00 | 0.00 | 63 | 1012.9 |
| 20260505030842 | 16 | 252 | 1.6 | 1.6 | 0.00 | 0.00 | 0.00 | 63 | 1012.1 |
| 20260505030503 | 15 | 245 | 0.0 | 3.2 | 0.00 | 0.00 | 0.00 | 64 | 1012.9 |
| 20260505030337 | 15 | 249 | 0.0 | 0.0 | 0.00 | 0.00 | 0.00 | 65 | 1012.0 |
| 20260505030024 | 15 | 0 | 0.0 | 0.0 | 0.00 | 0.00 | 0.00 | 65 | 1012.9 |
| 20260505025833 | 15 | 250 | 0.0 | 0.0 | 0.00 | 0.00 | 0.00 | 66 | 1012.1 |
| 20260505025503 | 15 | 0 | 0.0 | 0.0 | 0.00 | 0.00 | 0.00 | 66 | 1013.0 |
| 20260505025331 | 15 | 247 | 0.0 | 0.0 | 0.00 | 0.00 | 0.00 | 66 | 1012.1 |
| 20260505025024 | 15 | 0 | 0.0 | 0.0 | 0.00 | 0.00 | 0.00 | 66 | 1012.9 |
| 20260505024829 | 15 | 245 | 0.0 | 0.0 | 0.00 | 0.00 | 0.00 | 66 | 1012.1 |
| 20260505024503 | 15 | 0 | 0.0 | 0.0 | 0.00 | 0.00 | 0.00 | 66 | 1013.0 |
| 20260505024327 | 15 | 248 | 0.0 | 0.0 | 0.00 | 0.00 | 0.00 | 65 | 1012.1 |
| 20260505024003 | 16 | 0 | 0.0 | 0.0 | 0.00 | 0.00 | 0.00 | 65 | 1013.2 |
| 20260505023824 | 16 | 248 | 0.0 | 0.0 | 0.00 | 0.00 | 0.00 | 64 | 1012.2 |
| 20260505023503 | 15 | 0 | 0.0 | 0.0 | 0.00 | 0.00 | 0.00 | 64 | 1013.1 |
| 20260505023320 | 15 | 249 | 0.0 | 0.0 | 0.00 | 0.00 | 0.00 | 64 | 1012.3 |
| 20260505023003 | 15 | 0 | 0.0 | 0.0 | 0.00 | 0.00 | 0.00 | 64 | 1013.4 |
| 20260505022818 | 15 | 246 | 0.0 | 0.0 | 0.00 | 0.00 | 0.00 | 64 | 1012.6 |
| 20260505022524 | 16 | 0 | 0.0 | 0.0 | 0.00 | 0.00 | 0.00 | 64 | 1013.1 |
| 20260505022315 | 16 | 250 | 0.0 | 0.0 | 0.00 | 0.00 | 0.00 | 64 | 1012.4 |
| 20260505022024 | 16 | 0 | 0.0 | 0.0 | 0.00 | 0.00 | 0.00 | 63 | 1013.1 |
| 20260505021812 | 16 | 250 | 0.0 | 0.0 | 0.00 | 0.00 | 0.00 | 63 | 1012.2 |
| 20260505021524 | 16 | 0 | 0.0 | 0.0 | 0.00 | 0.00 | 0.00 | 62 | 1013.0 |
| 20260505021309 | 16 | 253 | 0.0 | 0.0 | 0.00 | 0.00 | 0.00 | 62 | 1012.3 |
| 20260505021025 | 16 | 0 | 0.0 | 0.0 | 0.00 | 0.00 | 0.00 | 62 | 1013.1 |
| 20260505020805 | 16 | 250 | 0.0 | 0.0 | 0.00 | 0.00 | 0.00 | 62 | 1012.2 |
| 20260505020503 | 16 | 0 | 0.0 | 0.0 | 0.00 | 0.00 | 0.00 | 61 | 1013.4 |
| 20260505020300 | 16 | 248 | 0.0 | 0.0 | 0.00 | 0.00 | 0.00 | 61 | 1012.2 |
| 20260505020003 | 16 | 0 | 0.0 | 0.0 | 0.00 | 0.00 | 0.00 | 61 | 1013.1 |
| 20260505015757 | 16 | 242 | 0.0 | 0.0 | 0.00 | 0.00 | 0.00 | 61 | 1012.1 |
| 20260505015503 | 16 | 0 | 0.0 | 0.0 | 0.00 | 0.00 | 0.00 | 61 | 1013.1 |
| 20260505015254 | 16 | 256 | 0.0 | 0.0 | 0.00 | 0.00 | 0.00 | 61 | 1012.1 |
| 20260505015003 | 16 | 0 | 0.0 | 0.0 | 0.00 | 0.00 | 0.00 | 61 | 1012.9 |
| 20260505014751 | 16 | 251 | 0.0 | 0.0 | 0.00 | 0.00 | 0.00 | 61 | 1012.2 |
| 20260505014524 | 16 | 0 | 0.0 | 0.0 | 0.00 | 0.00 | 0.00 | 61 | 1012.8 |
| 20260505014249 | 16 | 250 | 0.0 | 0.0 | 0.00 | 0.00 | 0.00 | 61 | 1012.1 |
| 20260505014003 | 16 | 0 | 0.0 | 0.0 | 0.00 | 0.00 | 0.00 | 61 | 1012.9 |
| 20260505013745 | 16 | 245 | 0.0 | 0.0 | 0.00 | 0.00 | 0.00 | 61 | 1011.9 |
| 20260505013503 | 17 | 0 | 0.0 | 0.0 | 0.00 | 0.00 | 0.00 | 61 | 1013.0 |
| 20260505013243 | 17 | 250 | 0.0 | 0.0 | 0.00 | 0.00 | 0.00 | 60 | 1012.0 |
| 20260505013003 | 17 | 0 | 0.0 | 0.0 | 0.00 | 0.00 | 0.00 | 60 | 1012.9 |
| 20260505012741 | 17 | 250 | 0.0 | 0.0 | 0.00 | 0.00 | 0.00 | 60 | 1012.0 |
| 20260505012503 | 17 | 0 | 0.0 | 0.0 | 0.00 | 0.00 | 0.00 | 60 | 1012.8 |
| 20260505012238 | 17 | 250 | 0.0 | 0.0 | 0.00 | 0.00 | 0.00 | 59 | 1011.9 |
| 20260505012024 | 17 | 0 | 0.0 | 0.0 | 0.00 | 0.00 | 0.00 | 59 | 1012.6 |
| 20260505011733 | 17 | 250 | 0.0 | 0.0 | 0.00 | 0.00 | 0.00 | 58 | 1011.9 |
| 20260505011504 | 17 | 0 | 0.0 | 0.0 | 0.00 | 0.00 | 0.00 | 57 | 1012.8 |
| 20260505011231 | 18 | 245 | 0.0 | 0.0 | 0.00 | 0.00 | 0.00 | 56 | 1011.8 |
| 20260505011024 | 18 | 0 | 0.0 | 0.0 | 0.00 | 0.00 | 0.00 | 55 | 1012.6 |
| 20260505010726 | 18 | 245 | 0.0 | 0.0 | 0.00 | 0.00 | 0.00 | 55 | 1011.5 |
| 20260505010503 | 18 | 0 | 0.0 | 0.0 | 0.00 | 0.00 | 0.00 | 54 | 1012.4 |
| 20260505010223 | 18 | 246 | 0.0 | 0.0 | 0.00 | 0.00 | 0.00 | 54 | 1011.7 |
| 20260505010024 | 18 | 235 | 0.0 | 1.6 | 0.00 | 0.00 | 0.00 | 54 | 1012.6 |
| 20260505005719 | 18 | 250 | 0.0 | 0.0 | 0.00 | 0.00 | 0.00 | 52 | 1011.7 |
| 20260505005503 | 18 | 222 | 1.6 | 4.8 | 0.00 | 0.00 | 0.00 | 52 | 1012.6 |
| 20260505005216 | 19 | 249 | 0.0 | 1.6 | 0.00 | 0.00 | 0.00 | 51 | 1011.5 |
| 20260505005024 | 19 | 231 | 1.6 | 4.8 | 0.00 | 0.00 | 0.00 | 51 | 1012.4 |
| 20260505004713 | 19 | 238 | 1.6 | 4.8 | 0.00 | 0.00 | 0.00 | 51 | 1011.6 |
| 20260505004503 | 18 | 243 | 1.6 | 3.2 | 0.00 | 0.00 | 0.00 | 52 | 1012.2 |
| 20260505004210 | 19 | 244 | 0.0 | 1.6 | 0.00 | 0.00 | 0.00 | 51 | 1011.4 |
| 20260505004024 | 19 | 239 | 0.0 | 3.2 | 0.00 | 0.00 | 0.00 | 52 | 1012.4 |
| 20260505003707 | 19 | 234 | 0.0 | 1.6 | 0.00 | 0.00 | 0.00 | 53 | 1011.5 |
| 20260505003503 | 19 | 242 | 0.0 | 3.2 | 0.00 | 0.00 | 0.00 | 52 | 1012.4 |
| 20260505003205 | 19 | 248 | 0.0 | 1.6 | 0.00 | 0.00 | 0.00 | 53 | 1011.5 |
| 20260505003003 | 19 | 238 | 0.0 | 3.2 | 0.00 | 0.00 | 0.00 | 53 | 1012.3 |
| 20260505002700 | 19 | 240 | 0.0 | 3.2 | 0.00 | 0.00 | 0.00 | 52 | 1011.4 |
| 20260505002503 | 19 | 237 | 0.0 | 4.8 | 0.00 | 0.00 | 0.00 | 52 | 1012.2 |
| 20260505002159 | 19 | 251 | 1.6 | 1.6 | 0.00 | 0.00 | 0.00 | 51 | 1011.3 |
| 20260505002003 | 19 | 232 | 0.0 | 4.8 | 0.00 | 0.00 | 0.00 | 51 | 1012.1 |
| 20260505001655 | 20 | 249 | 0.0 | 1.6 | 0.00 | 0.00 | 0.00 | 51 | 1011.3 |
| 20260505001503 | 20 | 229 | 1.6 | 4.8 | 0.00 | 0.00 | 0.00 | 50 | 1012.2 |
| 20260505001153 | 20 | 236 | 0.0 | 1.6 | 0.00 | 0.00 | 0.00 | 50 | 1011.3 |
| 20260505001003 | 20 | 232 | 0.0 | 4.8 | 0.00 | 0.00 | 0.00 | 50 | 1012.3 |
| 20260505000650 | 20 | 235 | 0.0 | 3.2 | 0.00 | 0.00 | 0.00 | 49 | 1011.1 |
| 20260505000524 | 20 | 237 | 0.0 | 3.2 | 0.00 | 0.00 | 0.00 | 49 | 1012.0 |
| 20260505000148 | 20 | 246 | 0.0 | 0.0 | 0.00 | 0.00 | 0.00 | 47 | 1011.1 |
| 20260505000003 | 20 | 232 | 0.0 | 3.2 | 0.00 | 0.00 | 0.00 | 47 | 1012.1 |
| 20260504235644 | 20 | 244 | 0.0 | 0.0 | 0.00 | 0.00 | 0.00 | 46 | 1011.2 |
| 20260504235503 | 20 | 224 | 1.6 | 4.8 | 0.00 | 0.00 | 0.00 | 46 | 1011.8 |
| 20260504235140 | 20 | 230 | 1.6 | 3.2 | 0.00 | 0.00 | 0.00 | 45 | 1011.3 |
| 20260504235003 | 20 | 220 | 1.6 | 4.8 | 0.00 | 0.00 | 0.00 | 45 | 1012.1 |
| 20260504234638 | 21 | 241 | 0.0 | 1.6 | 0.00 | 0.00 | 0.00 | 44 | 1011.2 |
| 20260504234503 | 21 | 241 | 0.0 | 6.4 | 0.00 | 0.00 | 0.00 | 43 | 1012.1 |
| 20260504234135 | 21 | 246 | 0.0 | 0.0 | 0.00 | 0.00 | 0.00 | 43 | 1011.1 |
| 20260504234003 | 21 | 238 | 1.6 | 6.4 | 0.00 | 0.00 | 0.00 | 43 | 1012.2 |
| 20260504233631 | 21 | 245 | 1.6 | 8.0 | 0.00 | 0.00 | 0.00 | 42 | 1010.9 |
| 20260504233503 | 21 | 238 | 1.6 | 4.8 | 0.00 | 0.00 | 0.00 | 42 | 1012.0 |
| 20260504233127 | 21 | 193 | 3.2 | 3.2 | 0.00 | 0.00 | 0.00 | 42 | 1011.2 |
| 20260504233003 | 21 | 241 | 1.6 | 4.8 | 0.00 | 0.00 | 0.00 | 42 | 1011.9 |
| 20260504232625 | 21 | 250 | 1.6 | 1.6 | 0.00 | 0.00 | 0.00 | 42 | 1011.3 |
| 20260504232503 | 21 | 243 | 1.6 | 6.4 | 0.00 | 0.00 | 0.00 | 42 | 1012.1 |
| 20260504232121 | 21 | 248 | 1.6 | 4.8 | 0.00 | 0.00 | 0.00 | 42 | 1011.0 |
| 20260504232003 | 21 | 238 | 1.6 | 11.3 | 0.00 | 0.00 | 0.00 | 43 | 1012.3 |
| 20260504231618 | 21 | 239 | 1.6 | 4.8 | 0.00 | 0.00 | 0.00 | 41 | 1011.2 |
| 20260504231503 | 21 | 234 | 3.2 | 11.3 | 0.00 | 0.00 | 0.00 | 41 | 1011.9 |
| 20260504231114 | 21 | 247 | 1.6 | 3.2 | 0.00 | 0.00 | 0.00 | 41 | 1011.1 |
| 20260504231003 | 21 | 237 | 1.6 | 9.7 | 0.00 | 0.00 | 0.00 | 42 | 1011.8 |
| 20260504230610 | 22 | 293 | 3.2 | 4.8 | 0.00 | 0.00 | 0.00 | 40 | 1011.1 |
| 20260504230503 | 22 | 238 | 1.6 | 4.8 | 0.00 | 0.00 | 0.00 | 41 | 1011.9 |
| 20260504230109 | 22 | 211 | 1.6 | 4.8 | 0.00 | 0.00 | 0.00 | 41 | 1011.0 |
| 20260504230003 | 22 | 236 | 1.6 | 6.4 | 0.00 | 0.00 | 0.00 | 41 | 1011.8 |
| 20260504225607 | 22 | 231 | 1.6 | 3.2 | 0.00 | 0.00 | 0.00 | 41 | 1011.2 |
| 20260504225524 | 22 | 232 | 1.6 | 9.7 | 0.00 | 0.00 | 0.00 | 40 | 1012.0 |
| 20260504225103 | 22 | 242 | 1.6 | 9.7 | 0.00 | 0.00 | 0.00 | 40 | 1011.1 |
| 20260504225024 | 22 | 227 | 3.2 | 9.7 | 0.00 | 0.00 | 0.00 | 40 | 1011.9 |
| 20260504224600 | 22 | 246 | 3.2 | 4.8 | 0.00 | 0.00 | 0.00 | 40 | 1011.0 |
| 20260504224503 | 22 | 218 | 3.2 | 12.9 | 0.00 | 0.00 | 0.00 | 40 | 1011.8 |
| 20260504224057 | 22 | 233 | 1.6 | 12.9 | 0.00 | 0.00 | 0.00 | 39 | 1011.1 |
| 20260504224024 | 22 | 224 | 3.2 | 12.9 | 0.00 | 0.00 | 0.00 | 39 | 1011.8 |
| 20260504223554 | 22 | 270 | 3.2 | 4.8 | 0.00 | 0.00 | 0.00 | 40 | 1011.1 |
| 20260504223503 | 22 | 235 | 3.2 | 11.3 | 0.00 | 0.00 | 0.00 | 40 | 1012.0 |
| 20260504223050 | 22 | 281 | 4.8 | 11.3 | 0.00 | 0.00 | 0.00 | 39 | 1011.2 |
| 20260504223003 | 22 | 233 | 3.2 | 11.3 | 0.00 | 0.00 | 0.00 | 39 | 1012.1 |
| 20260504222547 | 22 | 243 | 0.0 | 3.2 | 0.00 | 0.00 | 0.00 | 39 | 1011.1 |
| 20260504222524 | 22 | 224 | 3.2 | 17.7 | 0.00 | 0.00 | 0.00 | 39 | 1012.0 |
| 20260504222044 | 22 | 208 | 3.2 | 8.0 | 0.00 | 0.00 | 0.00 | 38 | 1011.3 |
| 20260504222003 | 22 | 213 | 4.8 | 22.5 | 0.00 | 0.00 | 0.00 | 38 | 1011.9 |
| 20260504221542 | 23 | 207 | 11.3 | 22.5 | 0.00 | 0.00 | 0.00 | 38 | 1011.0 |
| 20260504221503 | 23 | 228 | 4.8 | 22.5 | 0.00 | 0.00 | 0.00 | 37 | 1012.0 |
| 20260504221038 | 23 | 283 | 3.2 | 4.8 | 0.00 | 0.00 | 0.00 | 38 | 1011.1 |
| 20260504221024 | 23 | 251 | 4.8 | 16.1 | 0.00 | 0.00 | 0.00 | 38 | 1012.1 |
| 20260504220535 | 23 | 249 | 3.2 | 9.7 | 0.00 | 0.00 | 0.00 | 37 | 1011.1 |
| 20260504220503 | 23 | 254 | 6.4 | 17.7 | 0.00 | 0.00 | 0.00 | 37 | 1012.1 |
| 20260504220032 | 23 | 250 | 9.7 | 12.9 | 0.00 | 0.00 | 0.00 | 37 | 1011.1 |
| 20260504220024 | 23 | 250 | 4.8 | 17.7 | 0.00 | 0.00 | 0.00 | 37 | 1012.0 |
| 20260504215528 | 23 | 255 | 11.3 | 14.5 | 0.00 | 0.00 | 0.00 | 36 | 1011.2 |
| 20260504215503 | 23 | 234 | 3.2 | 6.4 | 0.00 | 0.00 | 0.00 | 37 | 1012.1 |
| 20260504215026 | 23 | 263 | 4.8 | 8.0 | 0.00 | 0.00 | 0.00 | 37 | 1011.3 |
| 20260504215003 | 23 | 236 | 4.8 | 24.1 | 0.00 | 0.00 | 0.00 | 37 | 1012.4 |
| 20260504214521 | 23 | 239 | 0.0 | 3.2 | 0.00 | 0.00 | 0.00 | 37 | 1011.3 |
| 20260504214503 | 23 | 241 | 4.8 | 24.1 | 0.00 | 0.00 | 0.00 | 36 | 1012.0 |
| 20260504214018 | 23 | 228 | 16.1 | 24.1 | 0.00 | 0.00 | 0.00 | 35 | 1011.4 |
| 20260504214003 | 23 | 235 | 3.2 | 24.1 | 0.00 | 0.00 | 0.00 | 35 | 1012.1 |
| 20260504213514 | 23 | 281 | 4.8 | 8.0 | 0.00 | 0.00 | 0.00 | 36 | 1011.3 |
| 20260504213503 | 23 | 238 | 4.8 | 20.9 | 0.00 | 0.00 | 0.00 | 36 | 1012.3 |
| 20260504213012 | 23 | 208 | 1.6 | 12.9 | 0.00 | 0.00 | 0.00 | 38 | 1011.4 |
| 20260504213003 | 23 | 242 | 4.8 | 20.9 | 0.00 | 0.00 | 0.00 | 37 | 1012.2 |
| 20260504212507 | 23 | 219 | 3.2 | 9.7 | 0.00 | 0.00 | 0.00 | 37 | 1011.5 |
| 20260504212503 | 23 | 238 | 3.2 | 12.9 | 0.00 | 0.00 | 0.00 | 38 | 1012.1 |
| 20260504212024 | 23 | 232 | 3.2 | 12.9 | 0.00 | 0.00 | 0.00 | 38 | 1012.1 |
| 20260504212005 | 23 | 251 | 1.6 | 8.0 | 0.00 | 0.00 | 0.00 | 38 | 1011.2 |
| 20260504211503 | 23 | 214 | 4.8 | 12.9 | 0.00 | 0.00 | 0.00 | 37 | 1012.2 |
| 20260504211501 | 23 | 243 | 8.0 | 11.3 | 0.00 | 0.00 | 0.00 | 36 | 1011.4 |
| 20260504211024 | 23 | 220 | 3.2 | 12.9 | 0.00 | 0.00 | 0.00 | 38 | 1012.1 |
| 20260504210959 | 23 | 179 | 6.4 | 8.0 | 0.00 | 0.00 | 0.00 | 37 | 1011.1 |
| 20260504210503 | 23 | 247 | 3.2 | 14.5 | 0.00 | 0.00 | 0.00 | 37 | 1012.1 |
| 20260504210456 | 23 | 239 | 3.2 | 4.8 | 0.00 | 0.00 | 0.00 | 37 | 1011.2 |
| 20260504210024 | 23 | 241 | 3.2 | 14.5 | 0.00 | 0.00 | 0.00 | 36 | 1012.0 |
| 20260504205952 | 23 | 260 | 6.4 | 14.5 | 0.00 | 0.00 | 0.00 | 35 | 1011.2 |
| 20260504205503 | 23 | 241 | 4.8 | 16.1 | 0.00 | 0.00 | 0.00 | 37 | 1012.1 |
| 20260504205450 | 23 | 252 | 4.8 | 8.0 | 0.00 | 0.00 | 0.00 | 36 | 1011.0 |
| 20260504205024 | 23 | 244 | 4.8 | 16.1 | 0.00 | 0.00 | 0.00 | 36 | 1012.2 |
| 20260504204948 | 23 | 243 | 3.2 | 9.7 | 0.00 | 0.00 | 0.00 | 36 | 1011.1 |
| 20260504204503 | 24 | 243 | 3.2 | 14.5 | 0.00 | 0.00 | 0.00 | 35 | 1012.4 |
| 20260504204446 | 24 | 246 | 4.8 | 9.7 | 0.00 | 0.00 | 0.00 | 36 | 1011.3 |
| 20260504204024 | 23 | 242 | 4.8 | 22.5 | 0.00 | 0.00 | 0.00 | 36 | 1012.2 |
| 20260504203945 | 23 | 250 | 1.6 | 3.2 | 0.00 | 0.00 | 0.00 | 37 | 1011.2 |
| 20260504203524 | 23 | 241 | 8.0 | 25.7 | 0.00 | 0.00 | 0.00 | 36 | 1012.2 |
| 20260504203442 | 22 | 207 | 3.2 | 9.7 | 0.00 | 0.00 | 0.00 | 36 | 1011.3 |
| 20260504203003 | 23 | 245 | 9.7 | 27.4 | 0.00 | 0.00 | 0.00 | 35 | 1012.2 |
| 20260504202938 | 23 | 201 | 4.8 | 22.5 | 0.00 | 0.00 | 0.00 | 36 | 1011.3 |
| 20260504202503 | 22 | 249 | 11.3 | 27.4 | 0.00 | 0.00 | 0.00 | 35 | 1012.4 |
| 20260504202435 | 22 | 222 | 14.5 | 17.7 | 0.00 | 0.00 | 0.00 | 35 | 1011.5 |
| 20260504201931 | 23 | 274 | 11.3 | 16.1 | 0.00 | 0.00 | 0.00 | 35 | 1011.6 |
| 20260504201429 | 23 | 229 | 11.3 | 22.5 | 0.00 | 0.00 | 0.00 | 36 | 1011.6 |
| 20260504200927 | 23 | 225 | 8.0 | 24.1 | 0.00 | 0.00 | 0.00 | 35 | 1011.7 |
| 20260504200423 | 23 | 265 | 14.5 | 20.9 | 0.00 | 0.00 | 0.00 | 35 | 1011.8 |
| 20260504195920 | 23 | 244 | 8.0 | 12.9 | 0.00 | 0.00 | 0.00 | 35 | 1011.8 |
| 20260504195415 | 22 | 221 | 8.0 | 16.1 | 0.00 | 0.00 | 0.00 | 36 | 1012.1 |
| 20260504194912 | 22 | 178 | 8.0 | 14.5 | 0.00 | 0.00 | 0.00 | 35 | 1012.0 |
| 20260504194408 | 22 | 245 | 6.4 | 11.3 | 0.00 | 0.00 | 0.00 | 37 | 1012.1 |
| 20260504193904 | 23 | 229 | 8.0 | 22.5 | 0.00 | 0.00 | 0.00 | 35 | 1012.0 |
| 20260504193401 | 23 | 247 | 1.6 | 22.5 | 0.00 | 0.00 | 0.00 | 36 | 1012.2 |
| 20260504192900 | 23 | 213 | 3.2 | 12.9 | 0.00 | 0.00 | 0.00 | 35 | 1012.2 |
| 20260504192358 | 23 | 258 | 8.0 | 12.9 | 0.00 | 0.00 | 0.00 | 37 | 1012.4 |
| 20260504191856 | 22 | 247 | 1.6 | 8.0 | 0.00 | 0.00 | 0.00 | 36 | 1012.2 |
| 20260504191353 | 22 | 173 | 6.4 | 9.7 | 0.00 | 0.00 | 0.00 | 36 | 1012.3 |
| 20260504190848 | 22 | 235 | 9.7 | 16.1 | 0.00 | 0.00 | 0.00 | 36 | 1012.5 |
| 20260504190344 | 22 | 249 | 11.3 | 14.5 | 0.00 | 0.00 | 0.00 | 35 | 1012.4 |
| 20260504185841 | 22 | 228 | 3.2 | 20.9 | 0.00 | 0.00 | 0.00 | 37 | 1012.4 |
| 20260504185338 | 23 | 153 | 4.8 | 8.0 | 0.00 | 0.00 | 0.00 | 35 | 1012.4 |
| 20260504184834 | 22 | 242 | 1.6 | 4.8 | 0.00 | 0.00 | 0.00 | 37 | 1012.7 |
| 20260504184331 | 22 | 239 | 3.2 | 17.7 | 0.00 | 0.00 | 0.00 | 36 | 1012.7 |
| 20260504183826 | 22 | 231 | 3.2 | 17.7 | 0.00 | 0.00 | 0.00 | 37 | 1012.8 |
| 20260504183324 | 22 | 226 | 4.8 | 12.9 | 0.00 | 0.00 | 0.00 | 36 | 1012.9 |
| 20260504182822 | 22 | 226 | 6.4 | 11.3 | 0.00 | 0.00 | 0.00 | 35 | 1013.0 |
| 20260504182319 | 22 | 241 | 1.6 | 4.8 | 0.00 | 0.00 | 0.00 | 37 | 1012.9 |
| 20260504181816 | 22 | 254 | 8.0 | 14.5 | 0.00 | 0.00 | 0.00 | 35 | 1013.1 |
| 20260504181313 | 21 | 294 | 9.7 | 12.9 | 0.00 | 0.00 | 0.00 | 35 | 1013.0 |
| 20260504180812 | 21 | 228 | 17.7 | 25.7 | 0.00 | 0.00 | 0.00 | 35 | 1013.4 |
| 20260504180310 | 21 | 232 | 11.3 | 16.1 | 0.00 | 0.00 | 0.00 | 36 | 1013.3 |
| 20260504175808 | 22 | 242 | 4.8 | 16.1 | 0.00 | 0.00 | 0.00 | 35 | 1013.5 |
| 20260504175304 | 22 | 189 | 0.0 | 8.0 | 0.00 | 0.00 | 0.00 | 36 | 1013.4 |
| 20260504174803 | 22 | 247 | 4.8 | 9.7 | 0.00 | 0.00 | 0.00 | 36 | 1013.5 |
| 20260504174300 | 21 | 214 | 3.2 | 8.0 | 0.00 | 0.00 | 0.00 | 36 | 1013.5 |
| 20260504173756 | 22 | 240 | 11.3 | 16.1 | 0.00 | 0.00 | 0.00 | 37 | 1013.6 |
| 20260504173253 | 22 | 202 | 4.8 | 9.7 | 0.00 | 0.00 | 0.00 | 38 | 1013.5 |
| 20260504172750 | 21 | 248 | 4.8 | 20.9 | 0.00 | 0.00 | 0.00 | 36 | 1013.8 |
| 20260504172247 | 22 | 204 | 6.4 | 8.0 | 0.00 | 0.00 | 0.00 | 37 | 1013.7 |
| 20260504171743 | 21 | 273 | 6.4 | 17.7 | 0.00 | 0.00 | 0.00 | 36 | 1013.8 |
| 20260504171240 | 22 | 244 | 6.4 | 9.7 | 0.00 | 0.00 | 0.00 | 35 | 1014.0 |
| 20260504170737 | 22 | 233 | 0.0 | 9.7 | 0.00 | 0.00 | 0.00 | 39 | 1013.7 |
| 20260504170234 | 22 | 273 | 6.4 | 11.3 | 0.00 | 0.00 | 0.00 | 36 | 1014.1 |
| 20260504160153 | 20 | 238 | 1.6 | 4.8 | 0.00 | 0.00 | 0.00 | 41 | 1015.1 |
| 20260504151120 | 20 | 254 | 3.2 | 16.1 | 0.00 | 0.00 | 0.00 | 46 | 1015.1 |
| 20260504150618 | 19 | 275 | 6.4 | 16.1 | 0.00 | 0.00 | 0.00 | 46 | 1015.4 |
| 20260504150115 | 20 | 228 | 3.2 | 8.0 | 0.00 | 0.00 | 0.00 | 46 | 1015.3 |
| 20260504141043 | 17 | 226 | 4.8 | 12.9 | 0.00 | 0.00 | 0.00 | 53 | 1015.5 |
| 20260504141003 | 17 | 253 | 4.8 | 17.7 | 0.00 | 0.00 | 0.00 | 53 | 1016.2 |
| 20260504140540 | 17 | 256 | 11.3 | 16.1 | 0.00 | 0.00 | 0.00 | 53 | 1015.8 |
| 20260504140503 | 17 | 246 | 6.4 | 20.9 | 0.00 | 0.00 | 0.00 | 55 | 1016.4 |
| 20260504130504 | 14 | 252 | 6.4 | 14.5 | 0.00 | 0.00 | 0.00 | 64 | 1016.1 |
| 20260504110503 | 9 | 252 | 1.6 | 6.4 | 0.00 | 0.00 | 0.00 | 80 | 1017.4 |
| 20260504110351 | 9 | 255 | 1.6 | 3.2 | 0.00 | 0.00 | 0.00 | 80 | 1016.3 |
| 20260504100503 | 7 | 257 | 0.0 | 1.6 | 0.00 | 0.00 | 0.00 | 81 | 1017.6 |
| 20260504100308 | 7 | 253 | 0.0 | 0.0 | 0.00 | 0.00 | 0.00 | 81 | 1016.6 |
| 20260504081702 | 7 | 249 | 0.0 | 0.0 | 0.00 | 0.00 | 0.00 | 76 | 1016.8 |
| 20260504081503 | 8 | 250 | 1.6 | 3.2 | 0.00 | 0.00 | 0.00 | 76 | 1017.6 |
| 20260504081158 | 8 | 249 | 0.0 | 3.2 | 0.00 | 0.00 | 0.00 | 76 | 1016.6 |
| 20260504081003 | 8 | 254 | 1.6 | 3.2 | 0.00 | 0.00 | 0.00 | 76 | 1017.3 |
| 20260504080655 | 8 | 268 | 3.2 | 3.2 | 0.00 | 0.00 | 0.00 | 76 | 1016.7 |
| 20260504080503 | 8 | 252 | 1.6 | 3.2 | 0.00 | 0.00 | 0.00 | 76 | 1017.4 |
| 20260504080152 | 8 | 257 | 1.6 | 3.2 | 0.00 | 0.00 | 0.00 | 76 | 1016.7 |
| 20260504070119 | 8 | 251 | 1.6 | 3.2 | 0.00 | 0.00 | 0.00 | 72 | 1016.4 |
| 20260504050508 | 9 | 243 | 3.2 | 8.0 | 0.00 | 0.00 | 0.00 | 65 | 1016.3 |
| 20260504050503 | 9 | 251 | 3.2 | 6.4 | 0.00 | 0.00 | 0.00 | 65 | 1016.9 |
| 20260504050005 | 9 | 226 | 3.2 | 8.0 | 0.00 | 0.00 | 0.00 | 64 | 1016.4 |
| 20260504050003 | 9 | 249 | 3.2 | 6.4 | 0.00 | 0.00 | 0.00 | 64 | 1017.0 |
| 20260504045503 | 9 | 250 | 3.2 | 6.4 | 0.00 | 0.00 | 0.00 | 64 | 1017.3 |
| 20260504045500 | 9 | 254 | 4.8 | 8.0 | 0.00 | 0.00 | 0.00 | 64 | 1016.2 |
| 20260504045004 | 9 | 253 | 1.6 | 4.8 | 0.00 | 0.00 | 0.00 | 63 | 1017.2 |
| 20260504044957 | 10 | 226 | 4.8 | 4.8 | 0.00 | 0.00 | 0.00 | 63 | 1016.5 |
| 20260504044504 | 10 | 244 | 3.2 | 11.3 | 0.00 | 0.00 | 0.00 | 63 | 1017.1 |
| 20260504044454 | 10 | 256 | 0.0 | 1.6 | 0.00 | 0.00 | 0.00 | 63 | 1016.3 |
| 20260504044024 | 10 | 243 | 4.8 | 11.3 | 0.00 | 0.00 | 0.00 | 62 | 1017.3 |
| 20260504043952 | 10 | 264 | 6.4 | 11.3 | 0.00 | 0.00 | 0.00 | 62 | 1016.5 |
| 20260504043503 | 10 | 248 | 3.2 | 6.4 | 0.00 | 0.00 | 0.00 | 62 | 1017.0 |
| 20260504043449 | 10 | 233 | 4.8 | 4.8 | 0.00 | 0.00 | 0.00 | 62 | 1016.3 |
| 20260504043003 | 10 | 249 | 3.2 | 4.8 | 0.00 | 0.00 | 0.00 | 61 | 1016.8 |
| 20260504042946 | 10 | 249 | 3.2 | 3.2 | 0.00 | 0.00 | 0.00 | 61 | 1016.1 |
| 20260504042503 | 10 | 246 | 3.2 | 4.8 | 0.00 | 0.00 | 0.00 | 60 | 1016.9 |
| 20260504042442 | 10 | 256 | 3.2 | 3.2 | 0.00 | 0.00 | 0.00 | 59 | 1016.2 |
| 20260504042003 | 10 | 248 | 3.2 | 4.8 | 0.00 | 0.00 | 0.00 | 58 | 1016.9 |
| 20260504041939 | 10 | 252 | 3.2 | 4.8 | 0.00 | 0.00 | 0.00 | 58 | 1016.2 |
| 20260504041503 | 10 | 251 | 3.2 | 9.7 | 0.00 | 0.00 | 0.00 | 58 | 1016.9 |
| 20260504041436 | 10 | 245 | 3.2 | 4.8 | 0.00 | 0.00 | 0.00 | 58 | 1016.1 |
| 20260504041003 | 10 | 250 | 4.8 | 9.7 | 0.00 | 0.00 | 0.00 | 57 | 1016.7 |
| 20260504040931 | 10 | 263 | 1.6 | 4.8 | 0.00 | 0.00 | 0.00 | 57 | 1016.0 |
| 20260504040524 | 10 | 248 | 4.8 | 9.7 | 0.00 | 0.00 | 0.00 | 57 | 1017.1 |
| 20260504040429 | 10 | 275 | 4.8 | 4.8 | 0.00 | 0.00 | 0.00 | 56 | 1016.0 |
| 20260504040005 | 10 | 248 | 3.2 | 6.4 | 0.00 | 0.00 | 0.00 | 57 | 1016.7 |
| 20260504035925 | 10 | 256 | 1.6 | 4.8 | 0.00 | 0.00 | 0.00 | 57 | 1015.9 |